SAS36P ENBR-EHAM

Flight info

Callsign SAS36P
Flight time 1h 17m
Altitude 35000
Route TUXIL4D TUXIL DCT ZOL DCT ATNAK/N0426F360 DCT TIPAN DCT WECOW DCT LARDI/N0433F370 DCT TOPPA TOPPA2A
Aircraft A320/M-SDE3FGHIRWY/LB1

Departure

Time 2026-04-28 14:44
Airport Bergen Airport, Flesland (ENBR)

Arrival

Time 2026-04-28 16:01
Airport Amsterdam Airport Schiphol (EHAM)
Time Latitude Longitude Altitude Speed Heading
2026-04-28 14:21 60.28965 5.22581 175 ft 0 kts 133°
2026-04-28 14:35 60.28970 5.22570 175 ft 2 kts 133°
2026-04-28 14:35 60.28982 5.22544 175 ft 2 kts 133°
2026-04-28 14:35 60.28993 5.22519 175 ft 2 kts 133°
2026-04-28 14:35 60.29005 5.22495 175 ft 2 kts 133°
2026-04-28 14:36 60.29018 5.22477 176 ft 2 kts 173°
2026-04-28 14:36 60.29033 5.22481 176 ft 2 kts 213°
2026-04-28 14:36 60.29043 5.22506 176 ft 2 kts 256°
2026-04-28 14:36 60.29044 5.22518 176 ft 0 kts 256°
2026-04-28 14:38 60.29042 5.22503 176 ft 3 kts 252°
2026-04-28 14:39 60.29036 5.22453 176 ft 5 kts 257°
2026-04-28 14:39 60.29016 5.22385 176 ft 7 kts 213°
2026-04-28 14:39 60.28963 5.22374 175 ft 8 kts 197°
2026-04-28 14:39 60.28914 5.22295 172 ft 12 kts 204°
2026-04-28 14:40 60.28823 5.22312 170 ft 14 kts 171°
2026-04-28 14:40 60.28789 5.22323 170 ft 15 kts 171°
2026-04-28 14:40 60.28583 5.22390 166 ft 19 kts 168°
2026-04-28 14:40 60.28455 5.22436 162 ft 19 kts 172°
2026-04-28 14:41 60.28331 5.22476 159 ft 15 kts 170°
2026-04-28 14:41 60.28303 5.22485 158 ft 3 kts 172°
2026-04-28 14:41 60.28266 5.22491 157 ft 8 kts 175°
2026-04-28 14:41 60.28197 5.22516 155 ft 12 kts 167°
2026-04-28 14:42 60.28102 5.22539 153 ft 13 kts 188°
2026-04-28 14:42 60.28057 5.22419 152 ft 11 kts 258°
2026-04-28 14:42 60.28054 5.22275 153 ft 9 kts 289°
2026-04-28 14:42 60.28094 5.22234 153 ft 0 kts 348°
2026-04-28 14:43 60.28105 5.22230 153 ft 10 kts 349°
2026-04-28 14:43 60.28422 5.22122 157 ft 79 kts 350°
2026-04-28 14:43 60.28864 5.21975 164 ft 114 kts 351°
2026-04-28 14:44 60.29796 5.21652 250 ft 148 kts 349°
2026-04-28 14:44 60.31149 5.21231 1051 ft 152 kts 348°
2026-04-28 14:44 60.32253 5.20876 1304 ft 177 kts 347°
2026-04-28 14:44 60.33565 5.20347 1310 ft 205 kts 339°
2026-04-28 14:45 60.34776 5.18483 1409 ft 239 kts 302°
2026-04-28 14:45 60.35138 5.16323 1925 ft 245 kts 276°
2026-04-28 14:45 60.34754 5.12989 2880 ft 257 kts 239°
2026-04-28 14:45 60.33412 5.10582 3756 ft 267 kts 204°
2026-04-28 14:46 60.31558 5.10026 4601 ft 276 kts 174°
2026-04-28 14:46 60.29663 5.10730 5492 ft 279 kts 164°
2026-04-28 14:46 60.27796 5.11842 6418 ft 281 kts 162°
2026-04-28 14:46 60.25903 5.13005 7214 ft 287 kts 163°
2026-04-28 14:47 60.23959 5.14086 8014 ft 292 kts 165°
2026-04-28 14:47 60.21963 5.15056 8792 ft 298 kts 167°
2026-04-28 14:47 60.19914 5.15939 9549 ft 304 kts 167°
2026-04-28 14:47 60.17815 5.16768 10289 ft 310 kts 168°
2026-04-28 14:48 60.15665 5.17573 10822 ft 323 kts 168°
2026-04-28 14:48 60.13374 5.18414 11023 ft 346 kts 169°
2026-04-28 14:48 60.10956 5.19295 11446 ft 358 kts 169°
2026-04-28 14:48 60.08481 5.20203 12045 ft 364 kts 168°
2026-04-28 14:49 60.05970 5.21129 12679 ft 369 kts 168°
2026-04-28 14:49 60.03428 5.22066 13325 ft 374 kts 168°
2026-04-28 14:49 60.00850 5.23016 13953 ft 380 kts 168°
2026-04-28 14:49 59.98233 5.23985 14549 ft 385 kts 168°
2026-04-28 14:50 59.95590 5.24963 15115 ft 389 kts 168°
2026-04-28 14:50 59.92920 5.25949 15694 ft 392 kts 168°
2026-04-28 14:50 59.90220 5.26946 16260 ft 396 kts 168°
2026-04-28 14:50 59.87498 5.27949 16853 ft 400 kts 168°
2026-04-28 14:51 59.84750 5.28957 17406 ft 404 kts 168°
2026-04-28 14:51 59.81971 5.29972 17971 ft 408 kts 168°
2026-04-28 14:51 59.79166 5.30994 18526 ft 412 kts 168°
2026-04-28 14:51 59.76332 5.32022 19052 ft 416 kts 168°
2026-04-28 14:52 59.73473 5.33058 19572 ft 419 kts 168°
2026-04-28 14:52 59.70592 5.34099 20118 ft 422 kts 168°
2026-04-28 14:52 59.67690 5.35146 20669 ft 425 kts 168°
2026-04-28 14:52 59.64772 5.36200 21196 ft 428 kts 167°
2026-04-28 14:53 59.61863 5.37248 21706 ft 431 kts 167°
2026-04-28 14:53 59.58863 5.38328 22227 ft 434 kts 167°
2026-04-28 14:53 59.55922 5.39385 22725 ft 437 kts 167°
2026-04-28 14:53 59.52922 5.40465 23234 ft 440 kts 167°
2026-04-28 14:54 59.49897 5.41558 23749 ft 443 kts 167°
2026-04-28 14:54 59.46854 5.42660 24232 ft 446 kts 167°
2026-04-28 14:54 59.43792 5.43762 24652 ft 449 kts 167°
2026-04-28 14:54 59.40705 5.44866 25051 ft 452 kts 167°
2026-04-28 14:55 59.37601 5.45980 25437 ft 455 kts 167°
2026-04-28 14:55 59.34475 5.47112 25820 ft 458 kts 167°
2026-04-28 14:55 59.31333 5.48256 26191 ft 461 kts 167°
2026-04-28 14:55 59.28172 5.49410 26573 ft 463 kts 167°
2026-04-28 14:56 59.24993 5.50574 26923 ft 466 kts 167°
2026-04-28 14:56 59.21793 5.51741 27286 ft 469 kts 167°
2026-04-28 14:56 59.18576 5.52907 27637 ft 471 kts 167°
2026-04-28 14:56 59.15343 5.54071 27981 ft 474 kts 167°
2026-04-28 14:57 59.12089 5.55238 28328 ft 477 kts 167°
2026-04-28 14:57 59.09929 5.56013 28554 ft 478 kts 167°
2026-04-28 14:57 59.05534 5.57591 29002 ft 482 kts 167°
2026-04-28 14:57 59.02230 5.58776 29340 ft 484 kts 167°
2026-04-28 14:58 58.98902 5.59966 29670 ft 487 kts 167°
2026-04-28 14:58 58.95563 5.61158 29991 ft 490 kts 167°
2026-04-28 14:58 58.92200 5.62353 30309 ft 492 kts 167°
2026-04-28 14:58 58.88785 5.63147 30658 ft 497 kts 175°
2026-04-28 14:59 58.85311 5.63009 30934 ft 501 kts 185°
2026-04-28 14:59 58.81903 5.62000 31182 ft 504 kts 190°
2026-04-28 14:59 58.78456 5.60757 31552 ft 504 kts 190°
2026-04-28 14:59 58.75008 5.59524 31931 ft 504 kts 190°
2026-04-28 15:00 58.71561 5.58297 32298 ft 504 kts 190°
2026-04-28 15:00 58.68112 5.57073 32664 ft 504 kts 190°
2026-04-28 15:00 58.64659 5.55846 33035 ft 505 kts 190°
2026-04-28 15:00 58.61208 5.54621 33400 ft 505 kts 190°
2026-04-28 15:01 58.57752 5.53398 33771 ft 505 kts 190°
2026-04-28 15:01 58.54298 5.52178 34142 ft 505 kts 190°
2026-04-28 15:01 58.50842 5.50959 34506 ft 505 kts 190°
2026-04-28 15:01 58.47385 5.49741 34827 ft 505 kts 190°
2026-04-28 15:02 58.43933 5.48527 35154 ft 504 kts 190°
2026-04-28 15:02 58.40490 5.47318 35502 ft 502 kts 190°
2026-04-28 15:02 58.37056 5.46110 35846 ft 501 kts 190°
2026-04-28 15:02 58.33633 5.44911 36178 ft 499 kts 189°
2026-04-28 15:03 58.30224 5.43725 36444 ft 499 kts 189°
2026-04-28 15:03 58.23401 5.41366 36506 ft 498 kts 189°
2026-04-28 15:04 58.16587 5.38997 36505 ft 498 kts 189°
2026-04-28 15:04 58.09775 5.36649 36504 ft 498 kts 189°
2026-04-28 15:05 58.02961 5.34308 36504 ft 497 kts 189°
2026-04-28 15:05 57.96161 5.31980 36508 ft 497 kts 189°
2026-04-28 15:06 57.89398 5.29661 36515 ft 498 kts 189°
2026-04-28 15:06 57.82583 5.27341 36520 ft 498 kts 189°
2026-04-28 15:07 57.75762 5.25040 36528 ft 498 kts 189°
2026-04-28 15:07 57.68940 5.22764 36532 ft 498 kts 189°
2026-04-28 15:08 57.62126 5.20495 36527 ft 497 kts 189°
2026-04-28 15:08 57.55310 5.18201 36541 ft 497 kts 189°
2026-04-28 15:09 57.48505 5.15915 36531 ft 497 kts 189°
2026-04-28 15:09 57.41705 5.13662 36534 ft 496 kts 188°
2026-04-28 15:10 57.34907 5.11433 36532 ft 496 kts 188°
2026-04-28 15:10 57.28115 5.09192 36528 ft 496 kts 189°
2026-04-28 15:11 57.21328 5.06949 36531 ft 495 kts 188°
2026-04-28 15:11 57.14541 5.04725 36531 ft 495 kts 188°
2026-04-28 15:12 57.07756 5.02534 36531 ft 495 kts 188°
2026-04-28 15:12 57.00975 5.00335 36533 ft 495 kts 188°
2026-04-28 15:13 56.94182 4.98298 36529 ft 494 kts 186°
2026-04-28 15:13 56.87377 4.96555 36528 ft 494 kts 186°
2026-04-28 15:14 56.80615 4.94867 36527 ft 494 kts 186°
2026-04-28 15:14 56.73767 4.93092 36535 ft 494 kts 186°
2026-04-28 15:15 56.67019 4.91308 36531 ft 493 kts 186°
2026-04-28 15:15 56.60177 4.89513 36530 ft 493 kts 186°
2026-04-28 15:16 56.53431 4.87765 36528 ft 493 kts 186°
2026-04-28 15:16 56.46639 4.85991 36528 ft 493 kts 186°
2026-04-28 15:17 56.39853 4.84223 36527 ft 492 kts 186°
2026-04-28 15:17 56.33069 4.82477 36525 ft 492 kts 186°
2026-04-28 15:18 56.26291 4.80762 36521 ft 492 kts 186°
2026-04-28 15:18 56.19515 4.79028 36521 ft 492 kts 186°
2026-04-28 15:19 56.12744 4.77287 36521 ft 491 kts 185°
2026-04-28 15:19 56.05986 4.75571 36519 ft 491 kts 185°
2026-04-28 15:20 55.99225 4.73872 36513 ft 490 kts 185°
2026-04-28 15:20 55.92470 4.72165 36511 ft 490 kts 185°
2026-04-28 15:21 55.85716 4.70456 36511 ft 490 kts 185°
2026-04-28 15:21 55.78962 4.68766 36507 ft 490 kts 185°
2026-04-28 15:22 55.72210 4.67085 36505 ft 490 kts 185°
2026-04-28 15:22 55.65454 4.65409 36511 ft 490 kts 185°
2026-04-28 15:23 55.58759 4.63755 36504 ft 489 kts 185°
2026-04-28 15:23 55.52014 4.62091 36502 ft 489 kts 185°
2026-04-28 15:24 55.45284 4.60435 36496 ft 488 kts 185°
2026-04-28 15:24 55.38556 4.58772 36497 ft 488 kts 185°
2026-04-28 15:25 55.31831 4.57131 36493 ft 487 kts 185°
2026-04-28 15:25 55.25104 4.55507 36489 ft 487 kts 185°
2026-04-28 15:26 55.18391 4.53887 36489 ft 487 kts 185°
2026-04-28 15:26 55.11679 4.52260 36490 ft 487 kts 185°
2026-04-28 15:27 55.05023 4.50645 36481 ft 486 kts 185°
2026-04-28 15:27 54.98332 4.49031 36479 ft 485 kts 184°
2026-04-28 15:28 54.91642 4.47438 36484 ft 485 kts 184°
2026-04-28 15:28 54.84961 4.45845 36481 ft 484 kts 184°
2026-04-28 15:29 54.78290 4.44257 36476 ft 483 kts 184°
2026-04-28 15:29 54.71630 4.42679 36468 ft 483 kts 184°
2026-04-28 15:30 54.64970 4.41122 36469 ft 483 kts 184°
2026-04-28 15:30 54.58434 4.38375 36462 ft 487 kts 200°
2026-04-28 15:31 54.52387 4.33044 36461 ft 488 kts 207°
2026-04-28 15:31 54.46370 4.27623 36432 ft 488 kts 206°
2026-04-28 15:32 54.40352 4.22207 36446 ft 488 kts 206°
2026-04-28 15:32 54.34340 4.16790 36447 ft 488 kts 206°
2026-04-28 15:33 54.28323 4.11385 36451 ft 488 kts 206°
2026-04-28 15:33 54.22349 4.06040 36446 ft 488 kts 205°
2026-04-28 15:34 54.16336 4.00681 36199 ft 486 kts 205°
2026-04-28 15:34 54.13340 3.98004 35837 ft 485 kts 205°
2026-04-28 15:34 54.10359 3.95345 35344 ft 483 kts 205°
2026-04-28 15:34 54.07383 3.92695 34859 ft 481 kts 205°
2026-04-28 15:35 54.04421 3.90062 34378 ft 480 kts 205°
2026-04-28 15:35 53.99511 3.85725 33468 ft 477 kts 204°
2026-04-28 15:35 53.96568 3.83129 32926 ft 475 kts 204°
2026-04-28 15:36 53.93638 3.80546 32396 ft 473 kts 204°
2026-04-28 15:36 53.90726 3.77983 31900 ft 471 kts 204°
2026-04-28 15:36 53.87822 3.75434 31385 ft 469 kts 204°
2026-04-28 15:36 53.84932 3.72903 30899 ft 467 kts 203°
2026-04-28 15:37 53.82054 3.70390 30403 ft 464 kts 203°
2026-04-28 15:37 53.79188 3.67888 29827 ft 462 kts 203°
2026-04-28 15:37 53.76341 3.65401 29257 ft 460 kts 204°
2026-04-28 15:37 53.73502 3.62923 28685 ft 457 kts 203°
2026-04-28 15:38 53.70682 3.60465 28148 ft 455 kts 203°
2026-04-28 15:38 53.67875 3.58022 27639 ft 452 kts 203°
2026-04-28 15:38 53.65083 3.55606 27120 ft 449 kts 202°
2026-04-28 15:38 53.62209 3.53681 26606 ft 441 kts 191°
2026-04-28 15:39 53.59239 3.52677 26105 ft 431 kts 180°
2026-04-28 15:39 53.56279 3.52575 25618 ft 421 kts 170°
2026-04-28 15:39 53.53394 3.53174 25129 ft 417 kts 166°
2026-04-28 15:39 53.50528 3.53851 24651 ft 414 kts 164°
2026-04-28 15:40 53.47755 3.54959 24170 ft 409 kts 160°
2026-04-28 15:40 53.45000 3.56174 23518 ft 410 kts 160°
2026-04-28 15:40 53.42277 3.57402 22841 ft 411 kts 160°
2026-04-28 15:40 53.39518 3.58658 22167 ft 412 kts 160°
2026-04-28 15:41 53.36752 3.59913 21517 ft 412 kts 161°
2026-04-28 15:41 53.33986 3.61157 20879 ft 412 kts 161°
2026-04-28 15:41 53.31218 3.62393 20260 ft 412 kts 161°
2026-04-28 15:41 53.28453 3.63624 19637 ft 411 kts 161°
2026-04-28 15:42 53.25690 3.64851 19027 ft 410 kts 162°
2026-04-28 15:42 53.22935 3.66070 18402 ft 409 kts 162°
2026-04-28 15:42 53.20187 3.67283 17726 ft 408 kts 162°
2026-04-28 15:42 53.17446 3.68489 17070 ft 406 kts 162°
2026-04-28 15:43 53.14715 3.69692 16421 ft 405 kts 163°
2026-04-28 15:43 53.12003 3.70889 15779 ft 402 kts 160°
2026-04-28 15:43 53.09303 3.72078 15144 ft 400 kts 161°
2026-04-28 15:43 53.06621 3.73259 14544 ft 397 kts 161°
2026-04-28 15:44 53.03964 3.74426 13917 ft 394 kts 162°
2026-04-28 15:44 53.01325 3.75580 13246 ft 390 kts 161°
2026-04-28 15:44 52.98716 3.76723 12580 ft 386 kts 160°
2026-04-28 15:44 52.96139 3.77858 11942 ft 381 kts 162°
2026-04-28 15:45 52.93587 3.78983 11327 ft 376 kts 162°
2026-04-28 15:45 52.91071 3.80084 10711 ft 371 kts 162°
2026-04-28 15:45 52.88587 3.81163 10084 ft 367 kts 161°
2026-04-28 15:45 52.86133 3.82227 9416 ft 362 kts 160°
2026-04-28 15:46 52.83709 3.83280 8761 ft 358 kts 160°
2026-04-28 15:46 52.81314 3.84321 8135 ft 354 kts 160°
2026-04-28 15:46 52.78944 3.85349 7529 ft 350 kts 161°
2026-04-28 15:46 52.76674 3.86320 7325 ft 322 kts 160°
2026-04-28 15:47 52.74614 3.87191 7314 ft 291 kts 161°
2026-04-28 15:47 52.72726 3.87994 7323 ft 276 kts 161°
2026-04-28 15:47 52.70907 3.88784 7319 ft 272 kts 162°
2026-04-28 15:47 52.69084 3.89585 7311 ft 271 kts 159°
2026-04-28 15:48 52.67253 3.90392 7305 ft 273 kts 161°
2026-04-28 15:48 52.65412 3.91195 7304 ft 274 kts 161°
2026-04-28 15:48 52.63569 3.91991 7314 ft 273 kts 159°
2026-04-28 15:48 52.61731 3.92787 7308 ft 274 kts 161°
2026-04-28 15:49 52.59888 3.93585 7298 ft 274 kts 162°
2026-04-28 15:49 52.58044 3.94377 7299 ft 274 kts 162°
2026-04-28 15:49 52.56193 3.95157 7301 ft 274 kts 161°
2026-04-28 15:49 52.54480 3.96335 7308 ft 263 kts 141°
2026-04-28 15:50 52.52995 3.98092 7298 ft 265 kts 139°
2026-04-28 15:50 52.51555 4.00004 7295 ft 267 kts 137°
2026-04-28 15:50 52.50128 4.01946 7284 ft 267 kts 137°
2026-04-28 15:50 52.48681 4.03894 6865 ft 271 kts 137°
2026-04-28 15:51 52.47217 4.05882 6365 ft 275 kts 137°
2026-04-28 15:51 52.45723 4.07881 5846 ft 279 kts 137°
2026-04-28 15:51 52.44219 4.09897 5342 ft 278 kts 137°
2026-04-28 15:51 52.42755 4.11876 4834 ft 268 kts 137°
2026-04-28 15:52 52.41325 4.13767 4368 ft 259 kts 137°
2026-04-28 15:52 52.39936 4.15564 4261 ft 252 kts 137°
2026-04-28 15:52 52.38574 4.17316 4267 ft 253 kts 137°
2026-04-28 15:52 52.37189 4.19095 4269 ft 253 kts 137°
2026-04-28 15:53 52.35806 4.20872 4266 ft 253 kts 137°
2026-04-28 15:53 52.34420 4.22654 4266 ft 253 kts 137°
2026-04-28 15:53 52.33034 4.24435 4266 ft 253 kts 137°
2026-04-28 15:53 52.31649 4.26212 4266 ft 253 kts 137°
2026-04-28 15:54 52.30261 4.27993 4269 ft 253 kts 137°
2026-04-28 15:54 52.28877 4.29769 4258 ft 253 kts 137°
2026-04-28 15:54 52.27492 4.31546 4258 ft 253 kts 137°
2026-04-28 15:54 52.26109 4.33319 4258 ft 253 kts 137°
2026-04-28 15:55 52.24715 4.35106 3988 ft 254 kts 137°
2026-04-28 15:55 52.23336 4.36835 3557 ft 247 kts 137°
2026-04-28 15:55 52.21987 4.38474 3049 ft 243 kts 137°
2026-04-28 15:55 52.20884 4.40413 2540 ft 227 kts 111°
2026-04-28 15:56 52.20500 4.42784 2269 ft 206 kts 95°
2026-04-28 15:56 52.20329 4.44966 2245 ft 182 kts 92°
2026-04-28 15:56 52.20171 4.46960 2279 ft 174 kts 93°
2026-04-28 15:56 52.20029 4.48855 2635 ft 167 kts 87°
2026-04-28 15:57 52.20225 4.50679 2790 ft 164 kts 66°
2026-04-28 15:57 52.20866 4.52208 2977 ft 166 kts 46°
2026-04-28 15:57 52.21742 4.53486 2854 ft 169 kts 53°
2026-04-28 15:57 52.22115 4.55146 2960 ft 161 kts 85°
2026-04-28 15:58 52.22274 4.56985 2653 ft 167 kts 63°
2026-04-28 15:58 52.23028 4.58463 2068 ft 172 kts 52°
2026-04-28 15:58 52.23632 4.59988 2003 ft 149 kts 59°
2026-04-28 15:58 52.24144 4.61337 1999 ft 134 kts 59°
2026-04-28 15:59 52.24648 4.62596 1897 ft 133 kts 54°
2026-04-28 15:59 52.25226 4.63772 1624 ft 133 kts 56°
2026-04-28 15:59 52.25736 4.65013 1383 ft 129 kts 58°
2026-04-28 15:59 52.26204 4.66294 1156 ft 138 kts 60°
2026-04-28 16:00 52.26688 4.67680 986 ft 136 kts 60°
2026-04-28 16:00 52.27156 4.68950 886 ft 127 kts 58°
2026-04-28 16:00 52.27603 4.70208 656 ft 130 kts 61°
2026-04-28 16:00 52.28039 4.71504 405 ft 128 kts 56°
2026-04-28 16:01 52.28518 4.72695 195 ft 124 kts 56°
2026-04-28 16:01 52.28967 4.73867 23 ft 118 kts 56°
2026-04-28 16:01 52.29353 4.74847 -2 ft 69 kts 57°
2026-04-28 16:01 52.29555 4.75370 -3 ft 35 kts 60°
2026-04-28 16:02 52.29620 4.75578 -2 ft 17 kts 64°
2026-04-28 16:02 52.29698 4.75724 -4 ft 13 kts 33°
2026-04-28 16:02 52.29784 4.75811 -3 ft 16 kts 31°
2026-04-28 16:02 52.29883 4.75890 -3 ft 14 kts 26°
2026-04-28 16:03 52.29962 4.75958 -3 ft 12 kts 31°
2026-04-28 16:03 52.29999 4.76013 -3 ft 0 kts 44°
2026-04-28 16:03 52.30008 4.76028 -3 ft 3 kts 51°
2026-04-28 16:03 52.30025 4.76075 -3 ft 6 kts 59°
2026-04-28 16:04 52.30053 4.76152 -3 ft 9 kts 59°
2026-04-28 16:04 52.30074 4.76206 -3 ft 1 kts 58°
2026-04-28 16:04 52.30086 4.76237 -3 ft 2 kts 57°
2026-04-28 16:04 52.30109 4.76295 -2 ft 9 kts 57°
2026-04-28 16:05 52.30150 4.76397 -2 ft 12 kts 56°
2026-04-28 16:05 52.30191 4.76507 -2 ft 11 kts 58°
2026-04-28 16:05 52.30235 4.76620 -2 ft 13 kts 58°
2026-04-28 16:05 52.30281 4.76719 -3 ft 10 kts 36°
2026-04-28 16:06 52.30338 4.76695 -3 ft 9 kts 310°
2026-04-28 16:06 52.30368 4.76591 -2 ft 9 kts 308°
2026-04-28 16:06 52.30419 4.76526 -2 ft 10 kts 326°
2026-04-28 16:06 52.30481 4.76462 -2 ft 10 kts 328°
2026-04-28 16:07 52.30523 4.76420 -2 ft 6 kts 338°
2026-04-28 16:07 52.30556 4.76448 -2 ft 5 kts 50°
2026-04-28 16:07 52.30568 4.76477 -2 ft 0 kts 56°